[[{"header":{"parameterUnit":"m.s-1","parameterCategory":2,"la1":30.2991,"la2":30.254,"lo1":-89.0895,"lo2":-89.0444,"dy":0.0017,"dx":0.0017,"nx":28,"ny":28,"refTime":"2025-12-24T09:00:00:Z","depth":"0","parameterNumber":2,"parameterNumberName":"U-component_of_CURRENTS"},"data":[0,0,0,0,0,0,0,0,0,0,0,0,0,0,0,0,0,0,0,0,0,0,0,0,0,0,0,0,0,0,0,0,0,0,0,0,0,0,0,0,0,0,0,0,0,0,0,0,0,0,0,0,0,0,0,0,0,0,0.2041,0.2041,0,0.1991,0.1991,0.199,0.199,0.1991,0.1991,0.1992,0.1954,0.1953,0.1951,0,0,0,0,0,0,0,0,0,0,0,0,0,0.2161,0.2159,0.2041,0.2041,0.204,0.1991,0.1991,0.199,0.199,0.1991,0.1991,0.1992,0.1955,0.1953,0.1951,0,0,0,0,0,0,0,0,0,0,0,0,0,0.2109,0.2158,0.2041,0.2035,0.2034,0.1991,0.1991,0.199,0.199,0.1991,0.1992,0.1993,0.1956,0.1953,0.1951,0.1914,0,0,0.1943,0.1942,0,0,0,0,0,0,0,0,0.2112,0.2105,0.2036,0.2035,0.2034,0.1998,0.2019,0.1965,0.1989,0.2006,0.1992,0.1993,0.197,0.1966,0.1953,0.1912,0.1911,0.1943,0.1941,0.194,0.194,0,0,0,0,0,0,0,0.2116,0.2107,0.2021,0.2035,0.2034,0.2043,0.2036,0.2009,0.1982,0.2004,0.2004,0.1999,0.1969,0.1956,0.1953,0.191,0.1943,0.1941,0.1939,0.1938,0.1847,0.1846,0,0,0,0,0,0,0.212,0.211,0.2022,0.2019,0.2077,0.204,0.2032,0.2008,0.1982,0.1979,0.1998,0.2,0.196,0.1955,0.1951,0.1907,0.194,0.1938,0.1937,0.1848,0.1847,0.1846,0,0,0,0,0,0,0.2122,0.2112,0.2024,0.2066,0.2055,0.2036,0.2009,0.2007,0.1993,0.1978,0.1975,0.1988,0.196,0.1955,0.1924,0.1906,0.1937,0.1935,0.1849,0.1848,0.1846,0.1819,0,0,0,0,0,0,0.2126,0.2112,0.209,0.2065,0.2053,0.1994,0.2008,0.2005,0.1989,0.199,0.1968,0.1966,0.1961,0.1927,0.1921,0.1903,0.1933,0.185,0.1848,0.1847,0.1821,0.1817,0.1814,0,0,0,0,0,0.213,0.2088,0.2089,0.2078,0.2024,0.1993,0.1987,0.1978,0.1987,0.1972,0.1961,0.1966,0.1912,0.1924,0.1917,0.1898,0.1851,0.1849,0.1847,0.1823,0.1818,0.1814,0,0,0,0,0,0,0.2121,0.2083,0.2084,0.2031,0.2015,0.1993,0.197,0.1973,0.1951,0.1952,0.1948,0.1943,0.1912,0.1905,0.1919,0.1868,0.1885,0.1881,0.1869,0.1864,0.186,0.1857,0.1931,0,0,0,0,0,0.211,0.2068,0.205,0.2006,0.1998,0.1987,0.1972,0.197,0.1952,0.1943,0.1931,0.1915,0.1896,0.1881,0.1863,0.1827,0.1823,0.1812,0.1808,0.1805,0.1798,0.178,0.1774,0.1839,0.1839,0.1839,0,0,0.2086,0.2067,0.2037,0.2002,0.1987,0.1958,0.1979,0.1952,0.1931,0.1941,0.1902,0.1899,0.1884,0.1849,0.1835,0.1842,0.1783,0.1802,0.18,0.1794,0.1777,0.1771,0.1766,0.1837,0.1838,0.1838,0,0,0.2026,0.201,0.196,0.1951,0.1934,0.1929,0.1924,0.1905,0.1901,0.1869,0.1875,0.1861,0.1823,0.1812,0.1802,0.1762,0.1766,0.1759,0.1731,0.1714,0.1709,0.1704,0.1687,0.1681,0.1754,0.1754,0.1754,0,0.2004,0.1944,0.1943,0.191,0.1896,0.1916,0.1877,0.1871,0.1847,0.1839,0.1853,0.1811,0.1804,0.1766,0.1757,0.1752,0.1745,0.1751,0.1709,0.1704,0.17,0.1684,0.1678,0.1753,0.1753,0.1753,0.1753,0,0.1908,0.1879,0.1853,0.1818,0.1805,0.1775,0.178,0.1769,0.1776,0.1775,0.1751,0.1747,0.1725,0.1724,0.1727,0.1691,0.1697,0.171,0.1723,0.1692,0.1677,0.1671,0.175,0.1751,0.1751,0.1752,0,0,0.1797,0.1788,0.1776,0.1769,0.1759,0.1738,0.1714,0.1695,0.1682,0.168,0.1655,0.164,0.1659,0.1649,0.1659,0.1648,0.1616,0.1664,0.1664,0.165,0.1575,0.1568,0.1561,0.1624,0.1622,0.1621,0.1576,0,0.1721,0.1665,0.1674,0.1623,0.1598,0.1628,0.1606,0.1602,0.1609,0.1595,0.1612,0.1594,0.1625,0.162,0.1614,0.1619,0.1599,0.1627,0.1604,0.1604,0.1604,0.1553,0.152,0.1476,0.157,0.1569,0.1569,0,0.1609,0.1595,0.1542,0.1551,0.1541,0.1517,0.1503,0.1492,0.1497,0.1505,0.1507,0.1527,0.1517,0.1551,0.1537,0.1555,0.1555,0.1563,0.1561,0.1559,0.1585,0.1522,0.1461,0.1424,0.1559,0.156,0.1561,0,0.1525,0.1499,0.1465,0.1461,0.1467,0.1449,0.1449,0.1453,0.1448,0.145,0.1446,0.1452,0.145,0.1457,0.1486,0.1505,0.1473,0.15,0.1488,0.1488,0.1456,0.1455,0.1358,0.147,0.147,0.1471,0.1471,0,0.1438,0.1405,0.1427,0.1404,0.1366,0.1391,0.1354,0.1365,0.137,0.1355,0.1397,0.1383,0.1427,0.1428,0.1454,0.1451,0.1444,0.1466,0.1469,0.1446,0.1444,0.141,0.1351,0.1469,0.1469,0.147,0.147,0,0.1351,0.1363,0.1329,0.1331,0.1329,0.13,0.1302,0.1285,0.1302,0.1282,0.1281,0.1317,0.1325,0.1365,0.1375,0.14,0.135,0.1401,0.1374,0.1374,0.1338,0.1278,0.1102,0.109,0.1375,0.1374,0.1374,0,0.1303,0.128,0.1273,0.1255,0.1253,0.1227,0.1214,0.1238,0.1226,0.1238,0.1221,0.1235,0.123,0.1254,0.1305,0.133,0.1294,0.1314,0.1342,0.1309,0.1245,0.1178,0.1178,0.1286,0.1285,0.1284,0.1284,0,0.1224,0.1227,0.1211,0.1178,0.1157,0.1137,0.1121,0.1106,0.1134,0.1112,0.1098,0.1096,0.1144,0.1154,0.1208,0.1244,0.1227,0.1295,0.1259,0.1151,0.107,0.1071,0.1348,0.1275,0.1276,0.1277,0.1277,0.1278,0.1167,0.1148,0.1138,0.1105,0.1081,0.1052,0.1019,0.1006,0.0976,0.094,0.0973,0.0945,0.0987,0.1064,0.1132,0.1184,0.1145,0.1172,0.1099,0.1035,0.1019,0.1278,0.1215,0.1216,0.1216,0.1217,0.1217,0,0.1104,0.1101,0.1067,0.1031,0.0992,0.0998,0.0963,0.093,0.0872,0.0833,0.0798,0.0786,0.0804,0.0903,0.097,0.098,0.0997,0.0962,0.0862,0.0876,0.1111,0.1109,0.1022,0.1023,0.1023,0.1023,0.1023,0.1023,0.1075,0.104,0.1036,0.0965,0.0936,0.0886,0.0861,0.0809,0.0772,0.0689,0.0654,0.0651,0.0675,0.0661,0.0723,0.0756,0.0709,0.0645,0.0654,0.0824,0.0839,0.0854,0.0843,0.0702,0.0701,0.0454,0.0451,0.0449]},{"header":{"parameterUnit":"m.s-1","parameterCategory":2,"la1":30.2991,"la2":30.254,"lo1":-89.0895,"lo2":-89.0444,"dy":0.0017,"dx":0.0017,"nx":28,"ny":28,"refTime":"2025-12-24T09:00:00:Z","depth":"0","parameterNumber":3,"parameterNumberName":"V-component_of_CURRENTS"},"data":[0,0,0,0,0,0,0,0,0,0,0,0,0,0,0,0,0,0,0,0,0,0,0,0,0,0,0,0,0,0,0,0,0,0,0,0,0,0,0,0,0,0,0,0,0,0,0,0,0,0,0,0,0,0,0,0,0,0,-0.1704,-0.1705,0,-0.1718,-0.1719,-0.1719,-0.1709,-0.1708,-0.1708,-0.1708,-0.1735,-0.1737,-0.1738,0,0,0,0,0,0,0,0,0,0,0,0,0,-0.1697,-0.1697,-0.1704,-0.1705,-0.1705,-0.1718,-0.1719,-0.1719,-0.1709,-0.1708,-0.1708,-0.1707,-0.1735,-0.1736,-0.1738,0,0,0,0,0,0,0,0,0,0,0,0,0,-0.1704,-0.1697,-0.1704,-0.1702,-0.1701,-0.1718,-0.1719,-0.1719,-0.1709,-0.1708,-0.1708,-0.1707,-0.1735,-0.1736,-0.1738,-0.1762,0,0,-0.1743,-0.1744,0,0,0,0,0,0,0,0,-0.1704,-0.1705,-0.1702,-0.1702,-0.1702,-0.1711,-0.1726,-0.1734,-0.1709,-0.1706,-0.1708,-0.1707,-0.1729,-0.1731,-0.1735,-0.1763,-0.1764,-0.1743,-0.1744,-0.1745,-0.1746,0,0,0,0,0,0,0,-0.1703,-0.1704,-0.171,-0.1702,-0.1702,-0.1709,-0.1709,-0.1728,-0.1721,-0.1706,-0.1706,-0.1707,-0.1729,-0.1733,-0.1736,-0.1765,-0.1743,-0.1745,-0.1746,-0.1747,-0.1806,-0.1806,0,0,0,0,0,0,-0.1701,-0.1703,-0.1709,-0.171,-0.1701,-0.171,-0.171,-0.1709,-0.1721,-0.1722,-0.1708,-0.1707,-0.1731,-0.1734,-0.1737,-0.1759,-0.1745,-0.1747,-0.1748,-0.1805,-0.1806,-0.1807,0,0,0,0,0,0,-0.1701,-0.1701,-0.1709,-0.1707,-0.1709,-0.171,-0.1709,-0.1709,-0.1715,-0.1722,-0.1723,-0.1713,-0.173,-0.1734,-0.176,-0.176,-0.1748,-0.1749,-0.1805,-0.1806,-0.1806,-0.1808,0,0,0,0,0,0,-0.17,-0.1701,-0.17,-0.1707,-0.1709,-0.1723,-0.171,-0.171,-0.1717,-0.1715,-0.1727,-0.1729,-0.173,-0.1757,-0.1761,-0.1762,-0.175,-0.1804,-0.1805,-0.1806,-0.1807,-0.1809,-0.181,0,0,0,0,0,-0.17,-0.17,-0.17,-0.1701,-0.1707,-0.1724,-0.1726,-0.1724,-0.1718,-0.1725,-0.1734,-0.1728,-0.1766,-0.176,-0.1764,-0.1766,-0.1804,-0.1805,-0.1806,-0.1807,-0.1808,-0.181,0,0,0,0,0,0,-0.1681,-0.1699,-0.1699,-0.17,-0.1714,-0.1722,-0.1726,-0.1729,-0.1741,-0.174,-0.1744,-0.1747,-0.1766,-0.1772,-0.1764,-0.1786,-0.1781,-0.1783,-0.178,-0.1781,-0.1783,-0.177,-0.1752,0,0,0,0,0,-0.1681,-0.1691,-0.1706,-0.1704,-0.1714,-0.1723,-0.1728,-0.1732,-0.1743,-0.1747,-0.1755,-0.1764,-0.1776,-0.1783,-0.1796,-0.1816,-0.1806,-0.1818,-0.1819,-0.182,-0.1813,-0.1809,-0.1809,-0.1811,-0.1811,-0.1811,0,0,-0.1662,-0.1682,-0.1678,-0.1703,-0.1711,-0.1724,-0.1724,-0.1737,-0.1744,-0.175,-0.1763,-0.1773,-0.1783,-0.18,-0.1808,-0.1804,-0.1814,-0.1822,-0.1822,-0.1815,-0.181,-0.181,-0.1809,-0.1811,-0.1811,-0.1811,0,0,-0.1646,-0.1659,-0.1666,-0.1689,-0.1716,-0.1726,-0.1732,-0.1749,-0.1756,-0.1777,-0.1777,-0.1789,-0.1811,-0.1813,-0.1818,-0.1838,-0.1823,-0.1841,-0.1837,-0.1833,-0.1832,-0.1832,-0.1815,-0.1812,-0.184,-0.184,-0.184,0,-0.1618,-0.1639,-0.1669,-0.1692,-0.1704,-0.1727,-0.1735,-0.1751,-0.1772,-0.1778,-0.1781,-0.1803,-0.1813,-0.1823,-0.1827,-0.1839,-0.183,-0.1828,-0.1833,-0.1832,-0.1832,-0.1814,-0.1812,-0.184,-0.184,-0.184,-0.184,0,-0.1615,-0.1636,-0.1644,-0.168,-0.1699,-0.1713,-0.1742,-0.1759,-0.177,-0.1779,-0.1797,-0.1813,-0.182,-0.1828,-0.1834,-0.1836,-0.1828,-0.1835,-0.1825,-0.1831,-0.1813,-0.181,-0.1841,-0.1841,-0.1841,-0.1841,0,0,-0.1521,-0.1621,-0.1617,-0.1646,-0.1697,-0.1709,-0.1733,-0.1755,-0.1759,-0.1785,-0.1786,-0.1811,-0.1815,-0.182,-0.1829,-0.1829,-0.1819,-0.1829,-0.1829,-0.1805,-0.1798,-0.1748,-0.1741,-0.1826,-0.1825,-0.1825,-0.1785,0,-0.1499,-0.1549,-0.16,-0.1626,-0.1652,-0.1696,-0.1713,-0.1739,-0.1758,-0.1769,-0.179,-0.1796,-0.1814,-0.1812,-0.1818,-0.182,-0.1813,-0.1828,-0.1801,-0.18,-0.175,-0.1736,-0.1625,-0.1575,-0.1782,-0.1782,-0.1781,0,-0.1466,-0.1513,-0.1545,-0.162,-0.163,-0.1641,-0.167,-0.1694,-0.1725,-0.174,-0.1756,-0.1771,-0.1781,-0.1792,-0.1793,-0.1801,-0.1796,-0.1796,-0.1795,-0.1744,-0.1746,-0.1605,-0.1563,-0.1458,-0.1777,-0.1777,-0.1778,0,-0.1393,-0.1466,-0.1495,-0.1519,-0.16,-0.1607,-0.1634,-0.1669,-0.1686,-0.1712,-0.1713,-0.1739,-0.1736,-0.1748,-0.1755,-0.1771,-0.1745,-0.1768,-0.1716,-0.1712,-0.1608,-0.1596,-0.1453,-0.1756,-0.1756,-0.1756,-0.1756,0,-0.1355,-0.1372,-0.1461,-0.1476,-0.1493,-0.1558,-0.1564,-0.1599,-0.163,-0.1634,-0.1684,-0.1678,-0.1724,-0.1722,-0.1737,-0.1708,-0.1729,-0.1702,-0.1696,-0.1606,-0.1594,-0.1493,-0.1429,-0.1755,-0.1755,-0.1755,-0.1756,0,-0.1279,-0.134,-0.1377,-0.145,-0.1467,-0.1473,-0.1524,-0.1531,-0.1566,-0.157,-0.1574,-0.1619,-0.1616,-0.1649,-0.1657,-0.1664,-0.1565,-0.164,-0.1525,-0.1506,-0.1368,-0.1309,-0.1159,-0.1105,-0.1576,-0.1575,-0.1573,0,-0.125,-0.1267,-0.134,-0.1356,-0.1386,-0.1409,-0.1426,-0.1484,-0.1492,-0.1524,-0.1515,-0.1522,-0.1509,-0.1507,-0.1515,-0.1514,-0.1467,-0.1421,-0.1436,-0.1325,-0.1255,-0.1239,-0.1204,-0.1297,-0.1294,-0.1291,-0.1289,0,-0.1194,-0.1218,-0.1255,-0.1293,-0.1311,-0.1338,-0.1362,-0.136,-0.1416,-0.1407,-0.1394,-0.1383,-0.1376,-0.1314,-0.1322,-0.1331,-0.1279,-0.1364,-0.1272,-0.1031,-0.0978,-0.0935,-0.136,-0.1264,-0.1266,-0.1268,-0.127,-0.1271,-0.1137,-0.115,-0.12,-0.123,-0.1254,-0.1262,-0.1254,-0.1275,-0.1268,-0.1234,-0.1258,-0.1191,-0.1125,-0.1115,-0.1125,-0.1029,-0.1083,-0.0983,-0.0923,-0.0924,-0.0846,-0.1211,-0.11,-0.1102,-0.1103,-0.1104,-0.1105,0,-0.1066,-0.1104,-0.1136,-0.1173,-0.1176,-0.1208,-0.1211,-0.1186,-0.1147,-0.1096,-0.105,-0.0921,-0.0808,-0.0785,-0.0676,-0.0591,-0.0611,-0.0543,-0.0475,-0.047,-0.0799,-0.0762,-0.0543,-0.0543,-0.0543,-0.0543,-0.0543,-0.0543,-0.1035,-0.1046,-0.108,-0.1085,-0.1107,-0.1084,-0.1068,-0.1036,-0.0991,-0.0868,-0.0769,-0.0715,-0.0623,-0.0345,-0.0189,-0.019,-0.0112,-0.0068,-0.0093,-0.0285,-0.0322,-0.0357,-0.0309,0.0001,0.0002,0.0234,0.0237,0.0239]}],[{"header":{"parameterUnit":"m.s-1","parameterCategory":2,"la1":30.2991,"la2":30.254,"lo1":-89.0895,"lo2":-89.0444,"dy":0.0017,"dx":0.0017,"nx":28,"ny":28,"refTime":"2025-12-24T09:00:00:Z","depth":"2","parameterNumber":2,"parameterNumberName":"U-component_of_CURRENTS"},"data":[0,0,0,0,0,0,0,0,0,0,0,0,0,0,0,0,0,0,0,0,0,0,0,0,0,0,0,0,0,0,0,0,0,0,0,0,0,0,0,0,0,0,0,0,0,0,0,0,0,0,0,0,0,0,0,0,0,0,0.0173,0.0172,0,0.0138,0.0138,0.0137,0.014,0.0141,0.0141,0.0142,0.0159,0.0159,0.0159,0,0,0,0,0,0,0,0,0,0,0,0,0,0.0246,0.0245,0.0173,0.0172,0.0172,0.0138,0.0138,0.0137,0.014,0.0141,0.0141,0.0142,0.0159,0.0159,0.0159,0,0,0,0,0,0,0,0,0,0,0,0,0,0.0214,0.0244,0.0173,0.0169,0.0168,0.0138,0.0138,0.0137,0.014,0.0141,0.0141,0.0142,0.0159,0.0159,0.0159,0.0145,0,0,0.0159,0.0159,0,0,0,0,0,0,0,0,0.0215,0.0211,0.017,0.0169,0.0168,0.0144,0.017,0.0142,0.014,0.0151,0.0142,0.0142,0.0158,0.0158,0.015,0.0146,0.0147,0.0159,0.0159,0.0159,0.0159,0,0,0,0,0,0,0,0.0218,0.0212,0.016,0.0169,0.0168,0.017,0.0166,0.0165,0.0152,0.015,0.015,0.0145,0.0158,0.015,0.0151,0.0147,0.0159,0.0159,0.0159,0.0159,0.0226,0.0228,0,0,0,0,0,0,0.022,0.0214,0.0161,0.0159,0.0193,0.0168,0.0164,0.0151,0.0151,0.0151,0.0145,0.0146,0.0149,0.015,0.0151,0.0189,0.0159,0.0159,0.0159,0.0225,0.0227,0.0229,0,0,0,0,0,0,0.0221,0.0215,0.0162,0.0186,0.0179,0.0166,0.0152,0.015,0.0156,0.0146,0.0148,0.0154,0.015,0.0151,0.0167,0.0188,0.0159,0.0159,0.0223,0.0225,0.0228,0.023,0,0,0,0,0,0,0.0223,0.0215,0.0217,0.0186,0.0178,0.0151,0.0151,0.0149,0.015,0.0152,0.0154,0.0156,0.0151,0.0167,0.0167,0.0187,0.0159,0.022,0.0224,0.0227,0.0228,0.0232,0.0236,0,0,0,0,0,0.0226,0.0217,0.0217,0.0211,0.0177,0.0151,0.0147,0.0141,0.015,0.015,0.0161,0.0156,0.019,0.0168,0.0168,0.0188,0.0219,0.0223,0.0227,0.0226,0.0231,0.0236,0,0,0,0,0,0,0.0244,0.0215,0.0215,0.0197,0.0181,0.0151,0.0151,0.0148,0.0154,0.0164,0.0163,0.0165,0.0191,0.0194,0.0171,0.0224,0.021,0.0214,0.0209,0.0215,0.0219,0.0217,0.0159,0,0,0,0,0,0.025,0.0241,0.0212,0.0202,0.0195,0.0178,0.0172,0.0166,0.0161,0.0164,0.0168,0.0186,0.0204,0.0212,0.0225,0.024,0.0241,0.0262,0.0266,0.027,0.0272,0.0298,0.0303,0.0242,0.0242,0.0241,0,0,0.0254,0.0238,0.0234,0.0207,0.0196,0.0184,0.0177,0.0166,0.0168,0.0166,0.0181,0.0196,0.0214,0.0236,0.025,0.0241,0.0287,0.0275,0.0277,0.0278,0.0302,0.0308,0.0313,0.0244,0.0244,0.0243,0,0,0.025,0.0244,0.0235,0.0223,0.0207,0.0197,0.0198,0.0178,0.0185,0.0192,0.0207,0.0236,0.0247,0.027,0.0282,0.0321,0.031,0.0333,0.0347,0.0371,0.0376,0.038,0.0375,0.0378,0.0334,0.0334,0.0334,0,0.0258,0.0238,0.0229,0.0216,0.0212,0.0206,0.0197,0.0198,0.0191,0.0204,0.0203,0.0252,0.0266,0.0308,0.0324,0.033,0.0329,0.0317,0.0374,0.0378,0.0382,0.0376,0.038,0.0334,0.0334,0.0334,0.0334,0,0.024,0.0234,0.0227,0.0215,0.0211,0.0201,0.0199,0.0209,0.0221,0.0224,0.0265,0.0284,0.0314,0.0333,0.0335,0.0383,0.0367,0.0373,0.0351,0.0388,0.038,0.0384,0.0335,0.0335,0.0335,0.0335,0,0,0.0228,0.0217,0.0216,0.0217,0.0211,0.0202,0.022,0.0229,0.0245,0.0261,0.0285,0.0332,0.0345,0.0362,0.038,0.0406,0.043,0.0399,0.04,0.0377,0.0461,0.046,0.0464,0.044,0.0441,0.0442,0.0437,0,0.0217,0.02,0.02,0.0198,0.019,0.0203,0.0217,0.0234,0.0252,0.0273,0.0315,0.0338,0.0355,0.0367,0.0401,0.0423,0.0444,0.043,0.0444,0.0444,0.0425,0.047,0.0349,0.0336,0.0441,0.0441,0.0442,0,0.0194,0.019,0.0182,0.0193,0.0192,0.0193,0.0222,0.0232,0.027,0.0284,0.0323,0.0342,0.0389,0.0392,0.045,0.0436,0.0451,0.0467,0.0467,0.047,0.0452,0.0323,0.0339,0.0448,0.0448,0.0447,0.0447,0,0.0185,0.0178,0.0177,0.0176,0.0185,0.0195,0.0205,0.0237,0.0247,0.0287,0.029,0.0352,0.0364,0.0412,0.0445,0.0445,0.0495,0.0497,0.051,0.0508,0.0411,0.04,0.0539,0.0539,0.0539,0.0539,0.0539,0,0.0169,0.0169,0.0171,0.0168,0.0174,0.0185,0.0198,0.0219,0.0239,0.0248,0.0289,0.03,0.0369,0.0402,0.0443,0.0486,0.0493,0.052,0.0518,0.0409,0.0399,0.0504,0.0501,0.0539,0.0539,0.0539,0.0539,0,0.0161,0.0159,0.0158,0.0166,0.0167,0.0172,0.0178,0.0187,0.0203,0.0212,0.0217,0.0257,0.0304,0.0366,0.0433,0.0469,0.0518,0.0529,0.0385,0.0369,0.051,0.0507,0.0546,0.0546,0.0546,0.0546,0.0546,0,0.0157,0.0153,0.0155,0.0151,0.0154,0.0157,0.0157,0.0171,0.017,0.0183,0.0181,0.022,0.025,0.0343,0.0429,0.0502,0.0511,0.0408,0.0409,0.0522,0.0516,0.0513,0.0509,0.0265,0.0262,0.0261,0.0259,0,0.016,0.0161,0.0164,0.0148,0.0144,0.0133,0.0128,0.012,0.013,0.0129,0.0133,0.0155,0.0243,0.0265,0.0358,0.0395,0.0395,0.0377,0.0528,0.0299,0.0262,0.0255,0.0259,0.0243,0.0245,0.0246,0.0247,0.0247,0.0172,0.0173,0.0169,0.0152,0.0138,0.0109,0.0098,0.0083,0.0073,0.0062,0.0085,0.0052,0.0108,0.0194,0.0266,0.0317,0.0377,0.0306,0.0309,0.0315,0.0301,0.0268,0.0245,0.0247,0.0248,0.0249,0.025,0,0.0188,0.0183,0.0169,0.0144,0.0116,0.0109,0.0078,0.0063,0.004,0.0014,0.0012,-0.0068,-0.0044,0.001,0.0078,0.0176,0.018,0.0141,0.0079,0.0093,0.0106,0.0081,-0.0033,-0.0033,-0.0033,-0.0033,0,0,0.0196,0.019,0.0172,0.0126,0.0106,0.0077,0.0059,0.0026,-0.0007,-0.0091,-0.0176,-0.013,-0.0106,-0.0134,-0.0048,-0.0057,0.0023,-0.0047,0.0161,0.0093,0.0105,0.0168,0.014,0,0,0,0,0]},{"header":{"parameterUnit":"m.s-1","parameterCategory":2,"la1":30.2991,"la2":30.254,"lo1":-89.0895,"lo2":-89.0444,"dy":0.0017,"dx":0.0017,"nx":28,"ny":28,"refTime":"2025-12-24T09:00:00:Z","depth":"2","parameterNumber":3,"parameterNumberName":"V-component_of_CURRENTS"},"data":[0,0,0,0,0,0,0,0,0,0,0,0,0,0,0,0,0,0,0,0,0,0,0,0,0,0,0,0,0,0,0,0,0,0,0,0,0,0,0,0,0,0,0,0,0,0,0,0,0,0,0,0,0,0,0,0,0,0,0.0489,0.049,0,0.0512,0.0512,0.0512,0.0485,0.0484,0.0483,0.0482,0.0447,0.0446,0.0446,0,0,0,0,0,0,0,0,0,0,0,0,0,0.0477,0.0477,0.0489,0.049,0.049,0.0511,0.0512,0.0512,0.0485,0.0484,0.0483,0.0482,0.0447,0.0446,0.0446,0,0,0,0,0,0,0,0,0,0,0,0,0,0.0488,0.0477,0.0489,0.048,0.0479,0.0511,0.0512,0.0512,0.0485,0.0484,0.0482,0.0481,0.0447,0.0446,0.0446,0.0473,0,0,0.0446,0.0446,0,0,0,0,0,0,0,0,0.0487,0.0488,0.0481,0.0481,0.048,0.0495,0.0494,0.0496,0.0486,0.0482,0.0482,0.0481,0.0459,0.0458,0.0464,0.0471,0.047,0.0446,0.0446,0.0446,0.0446,0,0,0,0,0,0,0,0.0486,0.0487,0.0497,0.0481,0.0481,0.0493,0.0492,0.0495,0.0476,0.0482,0.0481,0.0485,0.0458,0.0465,0.0463,0.0469,0.0446,0.0446,0.0446,0.0446,0.0454,0.0454,0,0,0,0,0,0,0.0484,0.0487,0.0497,0.0498,0.0481,0.0494,0.0493,0.0491,0.0477,0.0475,0.0486,0.0484,0.0466,0.0463,0.0462,0.0447,0.0446,0.0446,0.0446,0.0454,0.0454,0.0455,0,0,0,0,0,0,0.0484,0.0485,0.0496,0.0494,0.0496,0.0495,0.0493,0.0492,0.047,0.0481,0.0477,0.0462,0.0464,0.0462,0.0455,0.0447,0.0446,0.0445,0.0454,0.0454,0.0454,0.0446,0,0,0,0,0,0,0.0483,0.0484,0.0465,0.0494,0.0496,0.0501,0.0494,0.0493,0.0477,0.0473,0.0459,0.0456,0.0463,0.0455,0.0455,0.0446,0.0445,0.0453,0.0454,0.0454,0.0446,0.0446,0.0446,0,0,0,0,0,0.0483,0.0463,0.0464,0.0464,0.0475,0.0501,0.0503,0.0498,0.0477,0.0471,0.0466,0.0455,0.0458,0.0455,0.0455,0.0446,0.0453,0.0454,0.0454,0.0446,0.0446,0.0446,0,0,0,0,0,0,0.0446,0.046,0.0461,0.0445,0.0467,0.0496,0.048,0.0483,0.0475,0.0455,0.0461,0.0459,0.0453,0.0453,0.0449,0.0452,0.0453,0.0454,0.0447,0.0447,0.0447,0.045,0.0445,0,0,0,0,0,0.0432,0.0415,0.0447,0.0432,0.0437,0.0454,0.0455,0.0458,0.0464,0.0457,0.0453,0.045,0.0462,0.0454,0.0463,0.046,0.0458,0.0455,0.0455,0.0455,0.0458,0.0462,0.0462,0.0457,0.0457,0.0457,0,0,0.0415,0.0417,0.0408,0.0422,0.043,0.0447,0.0449,0.0444,0.0456,0.0455,0.0444,0.0448,0.0464,0.0469,0.0464,0.046,0.0452,0.0456,0.0456,0.0459,0.0462,0.0463,0.0463,0.0457,0.0457,0.0457,0,0,0.0386,0.0373,0.0358,0.0377,0.0388,0.0411,0.0405,0.0424,0.0422,0.0428,0.0435,0.0438,0.0438,0.0461,0.0472,0.0478,0.0458,0.0466,0.0462,0.0465,0.0465,0.0465,0.0447,0.0446,0.0461,0.0461,0.0461,0,0.0362,0.0355,0.036,0.0363,0.0377,0.0393,0.0403,0.0416,0.043,0.0436,0.0416,0.0439,0.0444,0.0475,0.0477,0.0479,0.0463,0.0458,0.0464,0.0465,0.0465,0.0446,0.0445,0.046,0.046,0.046,0.046,0,0.0344,0.0336,0.0328,0.0342,0.0359,0.0365,0.04,0.0403,0.0397,0.0417,0.0426,0.044,0.0451,0.0456,0.0466,0.0477,0.0459,0.0467,0.0461,0.0465,0.0445,0.0444,0.046,0.046,0.046,0.046,0,0,0.0307,0.0313,0.031,0.032,0.0348,0.0366,0.0383,0.042,0.0427,0.0429,0.044,0.0465,0.0455,0.0468,0.0476,0.0481,0.0468,0.0465,0.0465,0.0442,0.0446,0.0421,0.0417,0.0465,0.0466,0.0466,0.0424,0,0.0294,0.0291,0.0304,0.032,0.0333,0.0363,0.0385,0.0415,0.0429,0.0442,0.0458,0.046,0.0465,0.0451,0.0463,0.0472,0.0466,0.0477,0.0451,0.045,0.0424,0.0417,0.0528,0.05,0.0423,0.0423,0.0423,0,0.0286,0.0285,0.0285,0.032,0.0326,0.0332,0.0373,0.0394,0.0428,0.0431,0.044,0.0446,0.0458,0.045,0.0459,0.0456,0.0445,0.045,0.0449,0.0431,0.0424,0.0488,0.05,0.0421,0.0421,0.0421,0.0421,0,0.0275,0.0285,0.0279,0.029,0.0322,0.0319,0.0333,0.0373,0.0389,0.0403,0.0401,0.0426,0.0411,0.0419,0.0417,0.0427,0.0417,0.0436,0.0406,0.0403,0.0498,0.0503,0.0435,0.0435,0.0436,0.0436,0.0436,0,0.0278,0.0279,0.0259,0.026,0.0259,0.0284,0.0288,0.0312,0.0332,0.0343,0.0368,0.0374,0.0398,0.0399,0.0406,0.039,0.04,0.0401,0.0394,0.0495,0.05,0.0439,0.044,0.0434,0.0434,0.0435,0.0435,0,0.0281,0.0265,0.0262,0.0256,0.0249,0.0241,0.0247,0.0264,0.027,0.0278,0.027,0.0317,0.0309,0.033,0.0341,0.036,0.0361,0.0349,0.045,0.0455,0.0348,0.0349,0.0322,0.0321,0.032,0.0319,0.0319,0,0.0285,0.0274,0.0243,0.0226,0.0211,0.0196,0.02,0.0219,0.0233,0.0245,0.025,0.0244,0.0259,0.0266,0.0294,0.0294,0.0302,0.0401,0.0454,0.0342,0.0338,0.0341,0.0343,0.0573,0.0575,0.0576,0.0577,0,0.0298,0.0266,0.0257,0.0208,0.0185,0.0197,0.0186,0.0185,0.0204,0.0188,0.0173,0.0177,0.0204,0.0285,0.0304,0.0329,0.0415,0.0422,0.0297,0.0572,0.0572,0.057,0.0566,0.0588,0.0587,0.0586,0.0585,0.0585,0.0294,0.0279,0.0237,0.0196,0.0181,0.0184,0.018,0.0166,0.0152,0.0126,0.0147,0.0189,0.0277,0.0348,0.0336,0.0372,0.0392,0.0492,0.0492,0.0489,0.0513,0.0511,0.0518,0.0516,0.0515,0.0514,0.0513,0,0.0289,0.026,0.0231,0.0191,0.0185,0.0169,0.0173,0.016,0.0104,0.0109,0.0085,0.023,0.0353,0.0409,0.0491,0.0497,0.0503,0.0506,0.058,0.0576,0.057,0.0598,0.0624,0.0623,0.0621,0.062,0,0,0.0281,0.0245,0.0224,0.0192,0.0165,0.0145,0.0137,0.0098,0.01,0.0088,0.0158,0.0252,0.041,0.0464,0.0522,0.0579,0.0526,0.0558,0.0503,0.0585,0.0574,0.0638,0.0685,0,0,0,0,0]}],[{"header":{"parameterUnit":"m.s-1","parameterCategory":2,"la1":30.2991,"la2":30.254,"lo1":-89.0895,"lo2":-89.0444,"dy":0.0017,"dx":0.0017,"nx":28,"ny":28,"refTime":"2025-12-24T09:00:00:Z","depth":"4","parameterNumber":2,"parameterNumberName":"U-component_of_CURRENTS"},"data":[0,0,0,0,0,0,0,0,0,0,0,0,0,0,0,0,0,0,0,0,0,0,0,0,0,0,0,0,0,0,0,0,0,0,0,0,0,0,0,0,0,0,0,0,0,0,0,0,0,0,0,0,0,0,0,0,0,0,-0.0445,-0.0445,0,-0.0466,-0.0466,-0.0466,-0.0481,-0.0482,-0.0482,-0.0482,-0.0525,-0.0526,-0.0527,0,0,0,0,0,0,0,0,0,0,0,0,0,-0.0423,-0.0423,-0.0445,-0.0446,-0.0446,-0.0466,-0.0466,-0.0466,-0.0481,-0.0482,-0.0482,-0.0482,-0.0524,-0.0525,-0.0527,0,0,0,0,0,0,0,0,0,0,0,0,0,-0.0436,-0.0423,-0.0445,-0.0456,-0.0457,-0.0465,-0.0466,-0.0466,-0.0481,-0.0482,-0.0482,-0.0482,-0.0524,-0.0525,-0.0527,-0.0531,0,0,-0.0531,-0.0532,0,0,0,0,0,0,0,0,-0.0435,-0.0437,-0.0454,-0.0455,-0.0457,-0.0471,-0.0473,-0.0489,-0.0481,-0.0472,-0.0482,-0.0482,-0.0509,-0.0512,-0.0514,-0.0533,-0.0535,-0.0531,-0.0532,-0.0533,-0.0533,0,0,0,0,0,0,0,-0.0435,-0.0436,-0.0453,-0.0454,-0.0456,-0.0461,-0.0463,-0.0476,-0.0489,-0.0473,-0.0474,-0.0477,-0.051,-0.0513,-0.0515,-0.0535,-0.0531,-0.0533,-0.0534,-0.0534,-0.0616,-0.0617,0,0,0,0,0,0,-0.0432,-0.0435,-0.0452,-0.0454,-0.0447,-0.0461,-0.0463,-0.0466,-0.0488,-0.0492,-0.0476,-0.0477,-0.051,-0.0514,-0.0517,-0.0581,-0.0533,-0.0534,-0.0535,-0.0615,-0.0616,-0.0618,0,0,0,0,0,0,-0.0432,-0.0433,-0.0452,-0.0445,-0.0448,-0.0461,-0.0464,-0.0466,-0.0474,-0.0491,-0.0495,-0.0482,-0.051,-0.0515,-0.0536,-0.0581,-0.0535,-0.0536,-0.0613,-0.0615,-0.0617,-0.0672,0,0,0,0,0,0,-0.0431,-0.0433,-0.0434,-0.0445,-0.0448,-0.0459,-0.0464,-0.0467,-0.0475,-0.0477,-0.0497,-0.0501,-0.0511,-0.0534,-0.0538,-0.0582,-0.0537,-0.0611,-0.0614,-0.0616,-0.0669,-0.0676,-0.0682,0,0,0,0,0,-0.043,-0.0431,-0.0434,-0.0437,-0.045,-0.0459,-0.0461,-0.0471,-0.0475,-0.0479,-0.0496,-0.0501,-0.0553,-0.0536,-0.054,-0.0586,-0.061,-0.0613,-0.0616,-0.0666,-0.0674,-0.0682,0,0,0,0,0,0,-0.0423,-0.0433,-0.0437,-0.0441,-0.045,-0.0462,-0.0464,-0.0472,-0.0487,-0.0491,-0.0506,-0.0512,-0.0556,-0.0553,-0.0534,-0.0616,-0.0587,-0.0591,-0.0623,-0.0631,-0.0638,-0.06,-0.0539,0,0,0,0,0,-0.0421,-0.0424,-0.0435,-0.0439,-0.0442,-0.0454,-0.0459,-0.0467,-0.0481,-0.0488,-0.0505,-0.053,-0.057,-0.0584,-0.0609,-0.064,-0.0625,-0.0675,-0.0681,-0.0687,-0.0659,-0.0708,-0.0717,-0.0627,-0.0627,-0.0627,0,0,-0.0421,-0.0425,-0.0428,-0.0437,-0.0444,-0.0455,-0.0458,-0.0466,-0.0495,-0.049,-0.053,-0.0552,-0.0583,-0.0631,-0.065,-0.0634,-0.07,-0.0691,-0.0695,-0.0663,-0.0712,-0.0721,-0.0729,-0.0629,-0.0629,-0.0628,0,0,-0.0415,-0.0423,-0.0421,-0.043,-0.044,-0.0455,-0.0458,-0.0474,-0.0502,-0.0532,-0.0557,-0.0594,-0.0632,-0.0674,-0.07,-0.0752,-0.0737,-0.0768,-0.0769,-0.0819,-0.0827,-0.0833,-0.0804,-0.0808,-0.0769,-0.0769,-0.0769,0,-0.0412,-0.0415,-0.0423,-0.0425,-0.044,-0.0456,-0.0468,-0.05,-0.0526,-0.0559,-0.0549,-0.0636,-0.0658,-0.0743,-0.0751,-0.077,-0.0757,-0.0741,-0.0827,-0.0834,-0.0839,-0.0808,-0.0811,-0.0772,-0.0772,-0.0771,-0.0771,0,-0.0405,-0.0412,-0.0412,-0.0427,-0.0446,-0.0456,-0.0501,-0.0533,-0.0564,-0.0595,-0.0673,-0.0703,-0.0741,-0.0781,-0.0771,-0.0839,-0.0802,-0.0835,-0.0806,-0.0852,-0.0816,-0.0818,-0.0776,-0.0775,-0.0774,-0.0773,0,0,-0.0389,-0.0404,-0.0405,-0.0422,-0.0451,-0.047,-0.0529,-0.059,-0.0635,-0.0677,-0.0737,-0.0804,-0.0796,-0.082,-0.0843,-0.0879,-0.09,-0.0852,-0.0854,-0.0817,-0.0945,-0.0814,-0.0803,-0.0952,-0.0953,-0.0954,-0.0895,0,-0.0383,-0.0385,-0.0407,-0.0439,-0.0448,-0.05,-0.0553,-0.0615,-0.0669,-0.0728,-0.0794,-0.0836,-0.0826,-0.083,-0.0871,-0.0905,-0.091,-0.0908,-0.0908,-0.0906,-0.0783,-0.0804,-0.0958,-0.0897,-0.0897,-0.0897,-0.0898,0,-0.037,-0.0376,-0.0393,-0.0451,-0.0464,-0.0489,-0.0583,-0.0625,-0.0719,-0.0755,-0.0807,-0.084,-0.0889,-0.0873,-0.0928,-0.0922,-0.0904,-0.0926,-0.0926,-0.0778,-0.078,-0.0848,-0.0901,-0.0901,-0.0901,-0.09,-0.09,0,-0.0349,-0.0379,-0.0398,-0.0412,-0.047,-0.0507,-0.0536,-0.0622,-0.0668,-0.074,-0.0762,-0.0847,-0.0852,-0.0899,-0.089,-0.0911,-0.0933,-0.0988,-0.0851,-0.0839,-0.095,-0.0944,-0.1002,-0.1002,-0.1002,-0.1002,-0.1002,0,-0.0334,-0.0355,-0.0384,-0.0391,-0.0434,-0.0472,-0.0523,-0.0574,-0.0633,-0.0662,-0.0734,-0.0747,-0.0854,-0.0877,-0.0892,-0.0842,-0.0927,-0.0821,-0.0822,-0.0971,-0.0968,-0.095,-0.0944,-0.1,-0.1,-0.1001,-0.1001,0,-0.0313,-0.0326,-0.0355,-0.0403,-0.0418,-0.0438,-0.0484,-0.0518,-0.0557,-0.0592,-0.0598,-0.0669,-0.0665,-0.0745,-0.0799,-0.08,-0.0809,-0.0759,-0.084,-0.0852,-0.0679,-0.0678,-0.0629,-0.0624,-0.0619,-0.0616,-0.0613,0,-0.0305,-0.0306,-0.035,-0.036,-0.0379,-0.0402,-0.0419,-0.0467,-0.048,-0.0519,-0.052,-0.053,-0.0563,-0.0542,-0.0616,-0.0637,-0.0633,-0.0632,-0.0711,-0.0637,-0.0645,-0.065,-0.0654,-0.0606,-0.0605,-0.0604,-0.0603,0,-0.0289,-0.0302,-0.0325,-0.0329,-0.0345,-0.0369,-0.0372,-0.0373,-0.0404,-0.0458,-0.0426,-0.0435,-0.0412,-0.0454,-0.0444,-0.0472,-0.066,-0.0589,-0.06,-0.0675,-0.061,-0.0623,-0.0632,-0.0588,-0.059,-0.0592,-0.0593,0,-0.0284,-0.029,-0.0297,-0.0314,-0.0324,-0.0313,-0.0328,-0.0315,-0.0327,-0.0363,-0.0328,-0.0346,-0.0376,-0.0357,-0.0358,-0.0365,-0.0387,-0.043,-0.0449,-0.0466,-0.0444,-0.034,-0.0215,0,0,0,0,0,-0.0273,-0.027,-0.0276,-0.0277,-0.0283,-0.0288,-0.0297,-0.0308,-0.0324,-0.0287,-0.0309,-0.0279,-0.0264,-0.0266,-0.0244,-0.0287,-0.0394,-0.026,-0.0454,-0.0508,-0.0524,-0.0516,0,0,0,0,0,0,-0.0262,-0.0264,-0.0265,-0.0238,-0.0232,-0.0228,-0.0234,-0.0248,-0.0221,-0.0243,-0.023,-0.026,-0.0245,-0.0269,-0.0237,-0.024,-0.0356,-0.0271,-0.027,-0.0498,-0.0513,-0.0527,-0.0524,0,0,0,0,0]},{"header":{"parameterUnit":"m.s-1","parameterCategory":2,"la1":30.2991,"la2":30.254,"lo1":-89.0895,"lo2":-89.0444,"dy":0.0017,"dx":0.0017,"nx":28,"ny":28,"refTime":"2025-12-24T09:00:00:Z","depth":"4","parameterNumber":3,"parameterNumberName":"V-component_of_CURRENTS"},"data":[0,0,0,0,0,0,0,0,0,0,0,0,0,0,0,0,0,0,0,0,0,0,0,0,0,0,0,0,0,0,0,0,0,0,0,0,0,0,0,0,0,0,0,0,0,0,0,0,0,0,0,0,0,0,0,0,0,0,0.0409,0.0409,0,0.0388,0.0387,0.0387,0.0398,0.0398,0.0399,0.04,0.0392,0.0391,0.0391,0,0,0,0,0,0,0,0,0,0,0,0,0,0.0428,0.0428,0.041,0.0409,0.0409,0.0388,0.0387,0.0387,0.0398,0.0398,0.0399,0.04,0.0392,0.0392,0.0391,0,0,0,0,0,0,0,0,0,0,0,0,0,0.0414,0.0428,0.041,0.0412,0.0412,0.0388,0.0387,0.0387,0.0397,0.0398,0.0399,0.04,0.0393,0.0392,0.039,0.0365,0,0,0.0387,0.0386,0,0,0,0,0,0,0,0,0.0415,0.0413,0.0412,0.0412,0.0412,0.0397,0.0391,0.038,0.0397,0.0402,0.04,0.0401,0.0395,0.0393,0.0386,0.0364,0.0364,0.0387,0.0386,0.0386,0.0385,0,0,0,0,0,0,0,0.0416,0.0414,0.04,0.0412,0.0412,0.0403,0.0403,0.0389,0.0393,0.0402,0.0403,0.0401,0.0395,0.0387,0.0386,0.0364,0.0387,0.0386,0.0385,0.0385,0.0352,0.0352,0,0,0,0,0,0,0.042,0.0415,0.0401,0.04,0.0416,0.0403,0.0402,0.04,0.0393,0.0393,0.04,0.0402,0.0389,0.0388,0.0386,0.04,0.0386,0.0384,0.0384,0.0352,0.0352,0.0352,0,0,0,0,0,0,0.0421,0.0419,0.0402,0.0407,0.0405,0.0402,0.04,0.0399,0.0402,0.0392,0.0392,0.0405,0.039,0.0388,0.0373,0.0399,0.0384,0.0383,0.0352,0.0352,0.0352,0.04,0,0,0,0,0,0,0.0421,0.042,0.0425,0.0408,0.0405,0.0389,0.0399,0.0398,0.0399,0.0401,0.0396,0.0395,0.039,0.0374,0.0371,0.0397,0.0382,0.0353,0.0352,0.0352,0.0398,0.0401,0.0404,0,0,0,0,0,0.0422,0.0422,0.0425,0.0423,0.041,0.0389,0.0386,0.0387,0.0399,0.0395,0.0389,0.0396,0.0371,0.0372,0.0369,0.0395,0.0353,0.0352,0.0352,0.0397,0.0401,0.0403,0,0,0,0,0,0,0.0434,0.0423,0.0426,0.0423,0.0409,0.0391,0.0392,0.039,0.0382,0.0392,0.0384,0.0382,0.0384,0.0371,0.0373,0.0382,0.0367,0.0366,0.0403,0.0406,0.0408,0.0384,0.0381,0,0,0,0,0,0.0438,0.0438,0.0421,0.0421,0.0416,0.0406,0.0401,0.04,0.0388,0.0387,0.038,0.0376,0.0376,0.0376,0.0367,0.0363,0.0351,0.0378,0.0381,0.0383,0.0359,0.0371,0.0374,0.0351,0.0351,0.0351,0,0,0.0442,0.0438,0.0438,0.0424,0.0418,0.0395,0.0405,0.04,0.039,0.0387,0.0375,0.0382,0.0375,0.0378,0.0378,0.0373,0.0385,0.0383,0.0385,0.0359,0.0371,0.0374,0.0376,0.035,0.035,0.0351,0,0,0.0442,0.0448,0.0442,0.0427,0.0417,0.0403,0.0402,0.0386,0.0392,0.0382,0.0384,0.039,0.0387,0.0382,0.0383,0.0385,0.0398,0.0405,0.0402,0.0416,0.0418,0.042,0.0421,0.0422,0.0409,0.0409,0.0409,0,0.0447,0.0438,0.0436,0.0419,0.0406,0.0404,0.0384,0.0381,0.0363,0.0362,0.0385,0.0378,0.0384,0.0378,0.0393,0.0393,0.0403,0.0399,0.0421,0.0422,0.0423,0.0424,0.0425,0.0411,0.0411,0.041,0.041,0,0.0429,0.0425,0.042,0.0396,0.0378,0.0367,0.0352,0.035,0.0366,0.0359,0.0368,0.0376,0.0373,0.0393,0.0401,0.0413,0.0419,0.0427,0.0418,0.0429,0.0428,0.0429,0.0414,0.0413,0.0413,0.0412,0,0,0.0428,0.0412,0.041,0.0404,0.0369,0.0356,0.0339,0.032,0.0312,0.0328,0.0318,0.0348,0.0364,0.0363,0.0383,0.0398,0.0435,0.0426,0.0426,0.0435,0.0468,0.0455,0.0454,0.0467,0.0467,0.0467,0.0471,0,0.0415,0.0387,0.038,0.0353,0.0331,0.0327,0.0307,0.0293,0.0292,0.0279,0.0308,0.0314,0.0351,0.0375,0.0393,0.0416,0.0435,0.0432,0.0447,0.0446,0.0441,0.0454,0.0467,0.0471,0.0471,0.0471,0.0471,0,0.039,0.0375,0.0353,0.0335,0.0328,0.0335,0.0307,0.0288,0.0265,0.0269,0.0274,0.0281,0.03,0.0343,0.0381,0.0388,0.043,0.045,0.0451,0.0413,0.0433,0.0453,0.0471,0.0471,0.0471,0.0471,0.0471,0,0.0374,0.0357,0.0348,0.0338,0.0312,0.0343,0.0346,0.0311,0.0288,0.0279,0.0261,0.027,0.0291,0.0334,0.038,0.0399,0.0412,0.0441,0.0457,0.0457,0.0447,0.0445,0.0467,0.0467,0.0467,0.0467,0.0467,0,0.0346,0.0338,0.0373,0.0366,0.0382,0.0368,0.0375,0.0368,0.0331,0.0282,0.0283,0.0242,0.0299,0.0303,0.0357,0.0396,0.0401,0.0443,0.0455,0.0468,0.0468,0.0448,0.0446,0.0467,0.0467,0.0467,0.0467,0,0.0315,0.0326,0.0324,0.0351,0.0382,0.0401,0.0424,0.0397,0.0375,0.0311,0.0313,0.0246,0.0257,0.0287,0.0337,0.0367,0.0405,0.0422,0.0412,0.0426,0.0447,0.0447,0.0441,0.044,0.044,0.044,0.0439,0,0.0292,0.0289,0.0336,0.0361,0.0405,0.0445,0.0453,0.0442,0.0381,0.0295,0.0239,0.0232,0.0204,0.0248,0.0287,0.0368,0.039,0.0406,0.0444,0.0431,0.0444,0.0444,0.0445,0.0439,0.0439,0.0438,0.0438,0,0.0238,0.0272,0.0278,0.0343,0.0399,0.0407,0.0423,0.0379,0.0313,0.0294,0.0202,0.0209,0.0197,0.0231,0.0294,0.0349,0.039,0.0403,0.0405,0.0441,0.0429,0.0442,0.0443,0.0437,0.0437,0.0437,0.0437,0,0.0216,0.0226,0.026,0.0325,0.0368,0.0369,0.0374,0.0329,0.0287,0.0192,0.0162,0.0164,0.0165,0.0217,0.0258,0.0323,0.0353,0.0385,0.0389,0.0391,0.0378,0.0355,0.0342,0,0,0,0,0,0.0196,0.0218,0.0243,0.0298,0.0327,0.0368,0.0332,0.0304,0.0247,0.0195,0.0184,0.018,0.023,0.0213,0.0283,0.0251,0.0356,0.0331,0.0393,0.0429,0.0431,0.0423,0,0,0,0,0,0,0.0185,0.0204,0.0228,0.0262,0.0305,0.0322,0.0312,0.0266,0.0215,0.0177,0.0198,0.0215,0.0256,0.0226,0.03,0.0308,0.0356,0.0354,0.0355,0.0428,0.043,0.0431,0.0424,0,0,0,0,0]}]]